Terminal Aerodrome Forecast
Issued by NWS Sterling, VA

Current Version | Previous Version | Graphics & Text | Print | Product List | Glossary On
Versions: 1 2 3 4 5 6 7 8 9 10 11 12 13 14 15 16 17 18 19 20 21
000
FTUS41 KLWX 291432 AAA
TAFDCA
TAF AMD
KDCA 291432Z 2915/3012 10017G22KT 4SM -RA BR OVC010
     FM291800 08013G20KT 3SM SHRA OVC008
     FM300300 07015KT 5SM -SHRA OVC008=

USA.gov is the U.S. government's official web portal to all federal, state and local government web resources and services.